STARLINK-31051, 58719

Orbit data source: Space-Track

STARLINK-31051, 58719 is a payload satellite owned by SpaceX/Seattle (US) in LEO that was launched on Wed, 03 Jan 2024 UTC via an FALCON 9 launch vehicle from the Air Force Western Test Range (AFWTR). Payload-class satellites include a variety of spacecraft equipped with specific instruments for various scientific and technological missions. These include communications satellites like Starlink; space stations such as the ISS; scientific satellites like the Hubble; Earth observation satellites from companies like Planet Labs, Umbra, and HawkEye 360; GPS; miniature CubeSats for education and research; and military/defense satellites.

Loading next visibility...
Identifier
58719, 2024-002Q
Orbit
LEO
Country
Flag of USUS
Related business
Manufacturer
SpaceX/Seattle
Mission
Operational Commercial Communications
Bus & Motor
STARLINK V2M, Unknown motor
Mass
730 kg wet, ~700 kg dry
Launch date (UTC)
2024-01-03 (2 years ago)
Launch vehicle
FALCON 9
Launch site
Air Force Western Test Range (AFWTR)
Object type
Payload
Rocket body
Debris
Shape & HBR
Box + 2 Pan, 17.7 m
Radar Cross Section
33.884 m², Large (>1 m²)

Expand to show TLE details & history
Last TLE update: 2 days ago

TLE from 2 days ago
0 STARLINK-31051
1 58719U 24002Q   26171.22799601  .00001856  00000-0  74819-4 0  9994
2 58719  53.1609 113.7050 0001347  89.7190 270.3965 15.30184497137715
Epoch: 2026-06-20T05:28Z
TLE epoch observation values (Epoch: 2026-06-20T05:28:18.855Z)
Latitude
-0.00002°
Longitude
123.18079°
Altitude
476.155 km
Speed
7.629 km/s
True Right ascension
07h 34m 49s
True Declination
0° 00' 00"
Sunlit
Object was in daylight at epoch
Visualization orbit readout
Latitude
Unknown
Longitude
Unknown
Altitude
Unknown
Speed
Unknown
Apparent Right ascension
Unknown
Apparent Declination
Unknown
Sunlit
N/A
Visualization observer readout
Local Sidereal Time
21:37:39
Azimuth
Unknown
Elevation
Unknown
Doppler factor
Unknown
Orbital elements
Apogee altitude
476.441 km
Perigee altitude
474.594 km
Semi-major axis
6,853.655 km
Eccentricity
0.00013
Inclination
53.1609°
RAAN
113.705°
Arg. of periapsis
89.719°
True anomaly
270.38106°
Mean anomaly
270.3965°
Eccentric anomaly
270.38878°
Mean motion
3.82525 °/min
Orbital period
94.11 mins
BSTAR
0.000074819
Loading maneuver chart data...
Computing Atmospheric mass density...
Loading historical data...
Loading historical data...
Loading historical data...
Loading historical data...
Loading historical data...
Loading historical data...
Loading historical data...

Documentation

Showing up to 5 results
|